Location: Härggis
(46.9540°N, 8.4897°E)
Time: 22:55:42
(UTC+00:00)

Cosmos 292 Rocket - Pass Details

Date: 27 May 2022
Orbit: 674 x 692 km, 74.0° (Epoch: 26 June)

Event Time Altitude Azimuth Distance (km) Brightness Sun altitude
Exits shadow 02:25:29 14° 227° (SW) 1,874 5.3 -10.4°
Maximum altitude 02:29:24 46° 297° (WNW) 920 4.3 -9.9°
Drops below altitude 10° 02:34:01 10° 12° (NNE) 2,131 7.3 -9.4°
Sets 02:36:25 0° 18° (NNE) 3,047 8.4 -9.1°
